Regional Weather Roundup
Issued by NWS

Home | Current Version | Previous Version | Graphics & Text | Print | Product List | Glossary On
Versions: 1 2 3 4 5 6 7 8 9 10 11 12 13 14 15 16 17 18 19 20 21 22 23 24 25 26 27 28 29 30 31 32 33 34 35 36 37 38 39 40 41 42 43 44 45 46 47 48 49 50
000
ASUS43 KLOT 230903
RWRIL

ILLINOIS REGIONAL WEATHER ROUNDUP
NATIONAL WEATHER SERVICE CHICAGO/ROMEOVILLE IL
400 AM CDT SAT JUL 23 2016

NOTE: "FAIR" INDICATES FEW OR NO CLOUDS BELOW 12,000 FEET WITH NO
SIGNIFICANT WEATHER AND/OR OBSTRUCTIONS TO VISIBILITY.

* THESE STATIONS ARE NOT UNDER NWS QUALITY CONTROL. THEY ALSO MAY NOT
  REPORT WEATHER SUCH AS PRECIPITATION OR FOG.

ILZ001-002-007-009-015-016-024-231000-
NORTHWEST ILLINOIS

CITY           SKY/WX    TMP DP  RH WIND       PRES   REMARKS
MOLINE         CLEAR     76  74  93 CALM      29.98R
STERLING*      MOCLDY    77  76  96 CALM      29.99S
SAVANNA*       PTCLDY    75  74  98 CALM      29.98S
$$

ILZ003-004-008-010-011-017-018-231000-
NORTH CENTRAL ILLINOIS

CITY           SKY/WX    TMP DP  RH WIND       PRES   REMARKS
ROCKFORD       CLEAR     75  73  93 SE3       29.99F
FREEPORT*      MOCLDY    72  71  99 CALM      30.01S FOG
ROCHELLE*      CLEAR     72  71  99 CALM      30.00S
DE KALB*       CLEAR     74  73  97 CALM      30.01S
$$

ILZ005-006-012>014-019>023-231000-
NORTHEAST ILLINOIS

CITY           SKY/WX    TMP DP  RH WIND       PRES   REMARKS
CHICAGO-OHARE  PTCLDY    79  75  87 W3        29.98S HX  83
CHICAGO-MIDWAY MOCLDY    81  75  82 W5        29.98S HX  87
AURORA         CLEAR     74  72  93 N3        29.99S
LANSING*       MOCLDY    75  73  93 CALM      29.99S
WAUKEGAN       CLEAR     76  75  97 CALM      29.97F
DUPAGE AIRPORT PTCLDY    77  74  90 CALM      29.99S
WHEELING       CLEAR     80  75  84 CALM      29.99S HX  85
MORRIS*        CLEAR     75  73  95 CALM      29.97F
NORTHERLY ISL    N/A     81  74  79 W5          N/A  HX  86
$$

LMZ740>746-231000-
SOUTHERN LAKE MICHIGAN

STATION/POSITION SKY/WX   TEMP    WIND        PRES    VSBY  WAVE
                          AIR SEA DIR/SP/G                  HT/PER
                          (F)     (DEG/KT/KT) (MB)    (MI)  (FT/S)
SOUTHERN BUOY              74 73  210/  4/  6 1014.7          0
WILMETTE HARBOR            77 70   CALM  /  2   N/A           0
HARRISON CRIB              83     270/  7/  7   N/A
BURNHAM HARBOR             81     250/  3/  7   N/A
CALUMET HARBOR             80     240/  2/  3 1014.7F
BURNS HARBOR               79     210/  7/ 15 1015.9S
MICHIGAN CITY              78     180/  7/  8   N/A
MICHIGAN CITY 6N           76 74  220/  4/  6   N/A           1
ST. JOSEPH                 75 74  180/  2/  2 1015.0F         0
$$

ILZ025>027-034>036-040-047-049-050-058-095>099-231000-
WEST-CENTRAL ILLINOIS

CITY           SKY/WX    TMP DP  RH WIND       PRES   REMARKS
QUINCY         CLEAR     75  73  93 S5        29.98S
GALESBURG*     CLEAR     74  73  98 SE3       29.99S
MACOMB*        FOG       72  71  99 CALM      30.00S VSB 1/2
JACKSONVILLE*  CLEAR     74  73  93 CALM      29.98S
PITTSFIELD*    CLEAR     74  74 100 CALM      30.00S
$$

ILZ028>032-037-038-041>044-048-051>054-059>061-231000-
CENTRAL ILLINOIS

CITY           SKY/WX    TMP DP  RH WIND       PRES   REMARKS
PONTIAC        CLEAR     74  74 100 CALM      30.00F
BLOOMINGTON    CLEAR     74  72  93 CALM      30.01F
DECATUR        CLEAR     73  71  93 CALM      29.99F
PEORIA         CLEAR     76  75  97 S3        29.99S
LACON*         CLEAR     74  73  96 CALM      29.98F
LINCOLN*       CLEAR     73  73  98 CALM      29.99S
SPRINGFIELD    CLEAR     75  73  93 S3        29.99F
TAYLORVILLE    CLEAR     72  72  99 CALM      30.00S
$$

ILZ033-039-045-046-055>057-062-063-231000-
EAST-CENTRAL ILLINOIS

CITY           SKY/WX    TMP DP  RH WIND       PRES   REMARKS
CHAMPAIGN      CLEAR     72  70  93 CALM      30.01S
MATTOON        PTCLDY    72  70  93 CALM      29.99F
PARIS*         CLEAR     68  68 100 CALM      30.01F FOG
$$

ILZ079-100>102-231000-
SOUTHWEST ILLINOIS

CITY           SKY/WX    TMP DP  RH WIND       PRES   REMARKS
ALTON          PTCLDY    71  71  99 CALM      29.99S
BELLEVILLE     CLEAR     72  72 100 CALM      29.97F
CAHOKIA*       CLEAR     74  71  91 S3        29.98F
SPARTA*        CLEAR     73  72  98 CALM      30.00F
$$

ILZ064>066-069>071-074>076-080>082-084>086-088>090-092>094-231000-
SOUTH-CENTRAL ILLINOIS

CITY           SKY/WX    TMP DP  RH WIND       PRES   REMARKS
CARBONDALE     FOG       73  71  93 N3        29.99S VSB 3/4
CAIRO*           N/A     73  73 100 CALM      29.98R FOG
EFFINGHAM*     PTCLDY    71  71 100 CALM      30.01S
MARION         FOG       72  72 100 CALM      29.99S VSB 1
MT. VERNON     CLEAR     70  64  83 CALM      30.01S
CENTRALIA*     PTCLDY    72  72 100 CALM      29.99S
SALEM*           N/A     72  71  95 CALM      30.00R FOG
METROPOLIS*    CLOUDY    74  74  99 CALM      29.99S FOG
$$

ILZ067-068-072-073-078-083-087-091-231000-
SOUTHEAST ILLINOIS

CITY           SKY/WX    TMP DP  RH WIND       PRES   REMARKS
LAWRENCEVILLE  MOCLDY    73  73 100 CALM      30.01R FOG
FLORA*         MOCLDY    72  71  97 CALM      30.00F FOG
FAIRFIELD*     MOCLDY    73  73 100 CALM      29.99S FOG
HARRISBURG*    FOG       76  76 100 CALM      29.99S VSB 1/4
ROBINSON*      FOG       70  70 100 CALM      30.02R VSB 1/4
CARMI*         FOG       74  74 100 CALM      30.00R VSB 1/4
$$

ABBREVIATIONS USED IN REMARKS
   TC - TEMPERATURE IN CELSIUS
  WCI - WIND CHILL INDEX
   HX - HEAT INDEX
  VSB - VISIBILITY
$$





USA.gov is the U.S. government's official web portal to all federal, state and local government web resources and services.